"Pseudo-MPEC" for 16A1F01

Created 2021 Jun 17 6:07:02 UT using Find_Orb

Click here for an explanation of pseudo-MPECs

 
 Astrometry: 
     16A1F01 KC2021 06 11:[H'-1w5n_7Astrometry(.b^redacted;KU),`MQ'vr;/gI8iPEW94
     16A1F01 KC2021 06 11MZclickn2KPugiFCr=)2jZ5qW-hereffor@cTjUCtxH4F4_w/Mf0W94
     16A1F01 KC2021 06 11J8MSJqg_CxF/?d=/?;)explanationtm+.9tHj)OVmyH@,sls25rW94

Station data:
(W94) AMACS1, San Pedro de Atacama  (S22.953076 W68.179810)  Chile.

Orbital elements:  16A1F01
   Perihelion 2021 May 18.113251 +/- 40.8474 TT =  2:43:04 (JD 2459352.613251)
Epoch 2021 Jun 11.0 TT = JDT 2459376.5   Earth MOID: 0.3218   Ma: 0.0916
M   4.54972862 +/- 26.294493        (J2000 ecliptic)          AutoNEOCP
n   0.19047081 +/- 0.253382         Peri.  259.81973 +/- 117.34339
a   2.99169341 +/- 2.65317          Node   344.77269 +/- 49.161132
e   0.5794810 +/- 0.259513          Incl.   10.81149 +/- 11.335378
P   5.17                   H 20.2   G  0.15   U 11.8  SR
q 1.25806363 +/- 0.276526    Q 4.72532319 +/- 48.5147
From 3 observations 2021 June 11 (15.8 min); mean residual 0".34
Residuals in arcseconds: 
210611 W94  .28+  .20-    210611 W94  .55-  .40+    210611 W94  .28+  .20-    

Ephemerides (geocentric):
Date (UTC) HH   RA              Dec         delta   r     elong  mag " sig PA
---- -- -- --  -------------   -----------  ------ ------ -----  --- ---- ---
2021 06 17 06  19 56 09.012   -61 23 38.44  .36925 1.3058 135.7 20.0  41d 116
2021 06 17 07  19 56 11.087   -61 22 54.34  .36931 1.3059 135.7 20.0  41d 117
2021 06 17 08  19 56 13.148   -61 22 10.17  .36937 1.3061 135.7 20.0  41d 117
2021 06 17 09  19 56 15.198   -61 21 25.95  .36943 1.3062 135.7 20.0  41d 117
2021 06 17 10  19 56 17.234   -61 20 41.66  .36949 1.3063 135.7 20.0  41d 117
2021 06 17 11  19 56 19.259   -61 19 57.32  .36955 1.3065 135.8 20.0  41d 117
2021 06 17 12  19 56 21.271   -61 19 12.92  .36961 1.3066 135.8 20.0  41d 117
2021 06 17 13  19 56 23.271   -61 18 28.46  .36967 1.3067 135.8 20.0  41d 117
2021 06 17 14  19 56 25.258   -61 17 43.93  .36973 1.3068 135.8 20.0  41d 117
2021 06 17 15  19 56 27.234   -61 16 59.35  .36979 1.3070 135.9 20.0  41d 117
2021 06 17 16  19 56 29.197   -61 16 14.71  .36985 1.3071 135.9 20.0  41d 117
2021 06 17 17  19 56 31.147   -61 15 30.01  .36991 1.3072 135.9 20.0  41d 117
2021 06 17 18  19 56 33.086   -61 14 45.26  .36997 1.3074 135.9 20.0  41d 117
2021 06 17 19  19 56 35.012   -61 14 00.44  .37003 1.3075 135.9 20.0  42d 117
2021 06 17 20  19 56 36.927   -61 13 15.56  .37009 1.3076 136.0 20.0  42d 117
2021 06 17 21  19 56 38.829   -61 12 30.63  .37015 1.3078 136.0 20.0  42d 117
2021 06 17 22  19 56 40.719   -61 11 45.63  .37021 1.3079 136.0 20.0  42d 117
2021 06 17 23  19 56 42.597   -61 11 00.58  .37027 1.3080 136.0 20.0  42d 117
2021 06 18 00  19 56 44.463   -61 10 15.47  .37033 1.3081 136.1 20.0  43d 117
2021 06 18 01  19 56 46.317   -61 09 30.30  .37039 1.3083 136.1 20.0  43d 116
2021 06 18 02  19 56 48.158   -61 08 45.07  .37046 1.3084 136.1 20.0  43d 116
2021 06 18 03  19 56 49.988   -61 07 59.78  .37052 1.3085 136.1 20.0  43d 116
2021 06 18 04  19 56 51.806   -61 07 14.43  .37058 1.3087 136.1 20.0  44d 116
2021 06 18 05  19 56 53.612   -61 06 29.03  .37064 1.3088 136.2 20.0  44d 116
2021 06 18 06  19 56 55.407   -61 05 43.57  .37070 1.3089 136.2 20.0  44d 116
2021 06 18 07  19 56 57.189   -61 04 58.04  .37076 1.3091 136.2 20.0  45d 116
2021 06 18 08  19 56 58.959   -61 04 12.46  .37083 1.3092 136.2 20.0  45d 116
2021 06 18 09  19 57 00.718   -61 03 26.83  .37089 1.3093 136.3 20.0  45d 116
2021 06 18 10  19 57 02.465   -61 02 41.13  .37095 1.3095 136.3 20.0  46d 116
2021 06 18 11  19 57 04.200   -61 01 55.37  .37101 1.3096 136.3 20.0  46d 116
2021 06 18 12  19 57 05.923   -61 01 09.56  .37108 1.3097 136.3 20.0  46d 116
2021 06 18 13  19 57 07.635   -61 00 23.69  .37114 1.3099 136.3 20.0  46d 116
2021 06 18 14  19 57 09.335   -60 59 37.76  .37120 1.3100 136.4 20.0  47d 116
2021 06 18 15  19 57 11.023   -60 58 51.77  .37127 1.3101 136.4 20.0  47d 116
2021 06 18 16  19 57 12.700   -60 58 05.73  .37133 1.3103 136.4 20.0  47d 116
2021 06 18 17  19 57 14.365   -60 57 19.63  .37139 1.3104 136.4 20.0  48d 116
2021 06 18 18  19 57 16.018   -60 56 33.47  .37146 1.3105 136.5 20.0  48d 116
2021 06 18 19  19 57 17.660   -60 55 47.25  .37152 1.3107 136.5 20.0  48d 116
2021 06 18 20  19 57 19.290   -60 55 00.97  .37158 1.3108 136.5 20.0  48d 116
2021 06 18 21  19 57 20.909   -60 54 14.64  .37165 1.3109 136.5 20.0  48d 116
2021 06 18 22  19 57 22.516   -60 53 28.25  .37171 1.3111 136.5 20.0  49d 116
2021 06 18 23  19 57 24.112   -60 52 41.80  .37177 1.3112 136.6 20.0  49d 116
2021 06 19 00  19 57 25.697   -60 51 55.29  .37184 1.3113 136.6 20.0  49d 116
2021 06 19 01  19 57 27.270   -60 51 08.73  .37190 1.3115 136.6 20.0  49d 117
2021 06 19 02  19 57 28.831   -60 50 22.11  .37197 1.3116 136.6 20.0  49d 117
2021 06 19 03  19 57 30.382   -60 49 35.43  .37203 1.3117 136.7 20.0  49d 117
2021 06 19 04  19 57 31.921   -60 48 48.69  .37210 1.3119 136.7 20.0  50d 117
2021 06 19 05  19 57 33.448   -60 48 01.90  .37216 1.3120 136.7 20.0  50d 117